Regional Weather Roundup
Issued by NWS Charleston, SC

Current Version | Previous Version | Graphics & Text | Print | Product List | Glossary On
Versions: 1 2 3 4 5 6 7 8 9 10 11 12 13 14 15 16 17 18 19 20 21 22 23 24 25 26 27 28 29 30 31 32 33 34 35 36 37 38 39 40 41 42 43 44 45 46 47 48 49 50
000
ASUS42 KCHS 251112
RWRCHS

REGIONAL WEATHER ROUNDUP
NATIONAL WEATHER SERVICE CHARLESTON SC
700 AM EDT THU MAY 25 2017

NOTE: "FAIR" INDICATES FEW OR NO CLOUDS BELOW 12,000 FEET WITH NO
SIGNIFICANT WEATHER AND/OR OBSTRUCTIONS TO VISIBILITY.

NOT ALL STATIONS ARE QUALITY CONTROLLED. USE DATA WITH CAUTION...
ESPECIALLY DEWPOINT OBSERVATIONS.

SCZ027-030-031-034>040-042>050-251200-
...SOUTHEAST SOUTH CAROLINA...

CITY           SKY/WX    TMP DP  RH WIND       PRES   REMARKS
N CHARLESTON   PTCLDY    65  60  84 W10       29.65R
WATERFRONT PRK   N/A     67  64  90 W7        29.63R
JOHNS ISLAND   FAIR      66  63  88 SW9       29.66R
PINOPOLIS        N/A     66  64  94 SW10G17   29.54R
MONCKS CORNER  CLOUDY    63  61  94 SW8       29.64R
SUMMERVILLE    FAIR      63  61  94 SW5       29.66R
BEAUFORT MCAS  PTCLDY    64  61  90 SW9       29.68R
BEAUFORT ARPT  FAIR      64  59  82 SW9G17    29.68R HAZE
HILTON HEAD IS PTCLDY    66  61  82 SW12      29.68
WALTERBORO     SUNNY     61  59  94 W6        29.67R
ALLENDALE      FAIR      61  59  94 CALM      29.65R

...SOUTHERN MIDLANDS AND PEE DEE...

CITY           SKY/WX    TMP DP  RH WIND       PRES   REMARKS
GEORGETOWN     FAIR      64  64 100 SW9       29.64R
KINGSTREE      FAIR     N/A N/A N/A SW9       29.61R
ORANGEBURG     CLEAR     62  60  93 W9        29.63R
BARNWELL       FAIR      61  61 100 SW8       29.65R
AIKEN          FAIR      55  55 100 SW7       29.67R
MANNING        PTSUNNY   64  63  94 W22G28    29.62R
COLUMBIA       CLEAR     61  58  90 SW8       29.61R
SUMTER         PTCLDY    62  59  88 SW15      29.59R
FLORENCE       PTCLDY    65  63  93 SW13      29.59R
MYRTLE BEACH   PTCLDY    68  64  88 W9        29.61R
N MYRTLE BEACH CLEAR     69  65  86 W12G18    29.60R

$$

GAZ063-065-086>088-099>101-113>116-118-119-134>141-150-251200-
...SOUTHEAST GEORGIA...

CITY           SKY/WX    TMP DP  RH WIND       PRES   REMARKS
SAVANNAH ARPT  MOCLDY    64  59  83 SW13      29.71R
HUNTER AAF     PTCLDY    64  64 100 SW9       29.69R
FORT STEWART   CLOUDY    63  59  86 SW6       29.70R
STATESBORO     CLEAR     61  61 100 SW6       29.69R
SYLVANIA       SUNNY     60  60  99 SW3       29.68R
CLAXTON        PTSUNNY   61  61 100 CALM      29.71R

...CSRA...CENTRAL AND FAR SOUTHEAST GEORGIA...

CITY           SKY/WX    TMP DP  RH WIND       PRES   REMARKS
THOMSON        MOCLDY    57  55  92 W6        29.70R
AUGUSTA-BUSH   PTCLDY    61  57  87 SW9       29.65R
AUGUSTA-DANIEL CLEAR     59  55  87 SW5       29.66R
SWAINSBORO     FAIR      57  57 100 W5        29.69R
VIDALIA        MOCLDY    61  59  94 SW3       29.71
EASTMAN        FAIR      60  52  75 W5        29.74R
HAZLEHURST     CLOUDY    62  62 100 SW3       29.72R
ALMA           CLOUDY    62  59  90 SW5       29.74R
WAYCROSS       MOCLDY    65  65 100 W5        29.74R
JESUP          CLOUDY    63  61  94 W3        29.74R
BAXLEY         CLOUDY    63  63 100 SW5       29.73R
BRUNSWICK      CLOUDY    64  63  94 SW8       29.74R
SAINT SIMONS   MOCLDY    67  61  81 W10       29.73R

$$

SCZ027-028-034-036>038-045-046-048>050-GAZ119-141-251200-
...LAKE AND SUPPLEMENTAL COASTAL OBSERVATIONS...

STATION/POSITION TIME  TEMP    WIND        PRES    WAVE   SWELL
                       AIR SEA DIR/SP/G            HT/PER HT/PER/DIR
                 (UTC) (F)     (DEG/KT/KT) (MB)    (FT/S) (FT/S/D)
WINYAH BAY       0945   69     240/  9     1002.0
LAKE MURRAY      1020   63     240/ 12/ 16 1001.7
ACE BASIN NERRS  0945   66     240/  5     1004.0
FORT PULASKI     1048   66     250/  8/ 12 1006.0R
SAPELO ISLAND    1000   68     240/ 11     1006.0

$$

ANZ835-935-AMZ111-154-330-350-352-354-370-450-454-472-251200-
...C-MAN AND BUOY OBSERVATIONS...

STATION/POSITION TIME  TEMP    WIND        PRES    WAVE   SWELL
                       AIR SEA DIR/SP/G            HT/PER HT/PER/DIR
                 (UTC) (F)     (DEG/KT/KT) (MB)    (FT/S) (FT/S/D)
BUOY 41004       1050   73 76  250/ 21/ 29 1003.6R  10/ 7
BUOY 41008       0950   71 77  260/ 21/ 25 1004.5    6/ 6
FOLLY BEACH CMAN 1000   68     250/  8/ 13 1003.8R
CAPERS NEARSHORE 1008   75 77  260/ 19/ 25 1002.4R
FRIPP NEARSHORE  1008   70 77  260/ 19/ 27 1003.4R


STATION/POSITION TIME  TEMP    WIND        PRES    WAVE   SWELL
                       AIR SEA DIR/SP/G            HT/PER HT/PER/DIR
                 (UTC) (F)     (DEG/KT/KT) (MB)    (FT/S) (FT/S/D)
5E ST. MARYS GA  1030      78                N/A     3/ 5
FRYING PAN BUOY  1050   75 76  240/ 23/ 29 1002.4R  10/ 9   5/180/ 9
BUOY 41025       1050   77 78  230/ 23/ 29 1001.6R   7/ 8
CAPE LOOKOUT NC  1000   75     230/ 13/ 18 1000.9R
BUOY 41002       1050   77 76  190/ 27/ 35 1007.9R  11/ 8
BUOY 41010       1050   79 78  210/ 17/ 21 1008.8R   9/ 8   2/ 50/12
ST AUGUSTINE FL  1100   69 76  250/  4/  5 1008.9R


$$




USA.gov is the U.S. government's official web portal to all federal, state and local government web resources and services.